Overview Statistics Trail Chart Weather Telemetry Raw packets
 

This is the latest recevied weather packets stored in our database for station/object HS2XQB-3. If no packets are shown the sender has not sent any weather packets the latest 10 day(s).

<< 5 6 7 8 9 10 11 >>
Time Temp. Humidity Pressure Rain* Wind** Luminosity Snow
1788404155 28.33° C 39% 1006 hPa - - 0 W/m² -
1788402333 28.89° C 39% 1006 hPa - - 0 W/m² -
1788400511 31.67° C 45% 1006 hPa - - 0 W/m² -
1788398690 37.78° C 54% 1006 hPa - - 0 W/m² -
1788396867 35.56° C 59% 1006 hPa - - 0 W/m² -
1788395045 32.22° C 66% 1005 hPa - - 0 W/m² -
1788393223 30.56° C 69% 1005 hPa - - 0 W/m² -
1788391400 30.56° C 69% 1005 hPa - - 0 W/m² -
1788389578 30.56° C 68% 1005 hPa - - 0 W/m² -
1788387756 30° C 69% 1005 hPa - - 0 W/m² -
1788385934 30° C 68% 1005 hPa - - 0 W/m² -
1788384112 30° C 68% 1005 hPa - - 0 W/m² -
1788382290 29.44° C 70% 1004 hPa - - 0 W/m² -
1788380468 29.44° C 68% 1005 hPa - - 0 W/m² -
1788378646 28.89° C 69% 1005 hPa - - 0 W/m² -
1788376824 28.33° C 66% 1005 hPa - - 0 W/m² -
1788375002 26.67° C 62% 1005 hPa - - 0 W/m² -
1788373180 21.67° C 44% 1005 hPa - - 0 W/m² -
1788371358 21.11° C 44% 1005 hPa - - 0 W/m² -
1788369536 21.67° C 43% 1006 hPa - - 0 W/m² -
1788367714 21.67° C 43% 1006 hPa - - 0 W/m² -
1788365893 21.67° C 41% 1006 hPa - - 0 W/m² -
1788364070 21.67° C 40% 1006 hPa - - 0 W/m² -
1788362248 22.22° C 40% 1006 hPa - - 0 W/m² -
1788360426 21.67° C 41% 1006 hPa - - 0 W/m² -

* Rain since midnight (hover to see other rain measurements)
** Current wind speed in m/s (hover to see current wind gust speed)